Regional Weather Roundup
Issued by NWS State College, PA

Home | Current Version | Previous Version | Text Only | Print | Product List | Glossary On
Versions: 1 2 3 4 5 6 7 8 9 10 11 12 13 14 15 16 17 18 19 20 21 22 23 24 25 26 27 28 29 30 31 32 33 34 35 36 37 38 39 40 41 42 43 44 45 46 47 48 49 50
000
ASUS41 KCTP 172210
RWRCTP

REGIONAL WEATHER ROUNDUP
NATIONAL WEATHER SERVICE STATE COLLEGE PA
600 PM EDT FRI APR 17 2015

Note: "fair" indicates few or no clouds below 12,000 feet with no
significant weather and/or obstructions to visibility.

* = STATION THAT DOES NOT REPORT PRECIPITATION /E.G. RAIN...SNOW...ETC/
    THUNDER OR FOG.

PAZ002>004-007>009-013>016-020>023-029>032-172300-
WESTERN PENNSYLVANIA

CITY           SKY/WX    TMP DP  RH WIND       PRES   REMARKS
ERIE           SUNNY     61  46  57 W9        30.03S
MEADVILLE      SUNNY     65  46  50 W7        30.02F
FRANKLIN*      SUNNY     64  46  52 W8        30.04S
NEW CASTLE     FAIR      69  49  48 N6        30.03S
BEAVER COUNTY  NOT AVBL
BUTLER*        MOSUNNY   66  48  52 NW6       30.04R
PITTSBURGH INT PTSUNNY   71  49  45 W6        30.01S
PITTSBURGH     MOSUNNY   69  47  45 N5        30.00F
INDIANA*       PTSUNNY   68  52  56 NW9       30.05R
LATROBE        MOSUNNY   68  54  60 NW7         N/A
WASHINGTON CO* SUNNY     70  52  52 NW6       30.03S
$$

PAZ004>006-010>012-017>019-024>028-033>037-041-042-045-046-049>053-172300-
CENTRAL PENNSYLVANIA

CITY           SKY/WX    TMP DP  RH WIND       PRES   REMARKS
BRADFORD       MOSUNNY   63  44  50 NW13      30.00S
DUBOIS         MOSUNNY   64  47  53 NW9       30.00F
CLEARFIELD     MOSUNNY   65  47  52 W8        30.00S
JOHNSTOWN      MOSUNNY   63  51  65 NW13      30.01F
ALTOONA        PTSUNNY   68  51  54 N10       29.99F
STATE COLLEGE  MOSUNNY   68  48  49 W13       29.98S
WILLIAMSPORT   MOSUNNY   73  47  39 W10       29.92F
SELINSGROVE    MOSUNNY   71  54  54 W5        29.94F
FT INDIANTOWN  CLOUDY    70  53  53 W10       29.94S
CAPITAL CITY   CLOUDY    73  52  47 NW8       29.94S
HARRISBURG     PTSUNNY   71  53  52 NW10      29.93S
YORK           CLOUDY    73  53  49 NW12      29.94S
$$

PAZ038>040-043-044-047-048-054-055-060>062-067>071-172300-
EASTERN PENNSYLVANIA

CITY           SKY/WX    TMP DP  RH WIND       PRES   REMARKS
SCRANTON       MOSUNNY   68  51  54 SW9       29.94S
MOUNT POCONO   CLOUDY    63  49  60 NW10      29.96R
ALLENTOWN      PTSUNNY   70  55  59 W6        29.93S
QUAKERTOWN*    MOCLDY    70  55  60 W3        29.94S
READING        CLOUDY    71  52  50 W12       29.92F
LANCASTER      CLOUDY    71  55  56 NW8       29.93S
COATESVILLE    CLEAR     72  57  60 W8        29.95S
POTTSTOWN      CLOUDY    71  54  54 W6        29.94F
BLUE BELL      SUNNY     73  57  56 CALM      29.92F
DOYLESTOWN     PTSUNNY   69  55  60 W5        29.92F
WILLOW GROVE   NOT AVBL
NORTH PHILA    MOSUNNY   74  54  49 W7        29.94F
PHILADELPHIA   PTSUNNY   73  57  57 SW8       29.93F
$$



USA.gov is the U.S. government's official web portal to all federal, state and local government web resources and services.